Theta_e
324 323 321 320 319 318 318 319 318 319 320 320 324 326 324 323 324 324 324 324 324 325 325 324 325 325 324 323 323 322 324 324 320 319 319 320 320 318 321 320 315 312 311 311 311 313 316 315 314 313 313 314 317 318 318 318 318 319 321 321 320 321 320 321 320 318 318 319 319 318 319 319 318 317 317 317 316 317 317 317 318 317 318 318 316 321 328 324
323 322 321 320 319 318 319 320 320 321 322 321 322 325 325 323 323 324 324 324 324 324 324 324 324 324 324 323 324 323 324 323 321 320 318 318 318 317 319 318 315 312 310 310 311 313 315 315 314 313 314 317 318 319 320 319 318 321 321 320 321 322 320 320 320 319 318 319 319 319 319 320 319 318 317 317 317 317 317 317 317 317 318 318 316 318 321 322
323 322 321 320 318 317 319 320 321 322 322 322 322 324 325 324 323 324 324 324 323 323 323 323 324 323 322 324 323 323 325 324 322 322 318 317 317 315 317 317 314 311 310 310 312 314 315 315 314 314 316 317 317 318 320 319 319 321 321 321 321 322 319 318 319 318 317 318 319 319 319 319 318 318 317 317 318 317 316 317 317 317 319 318 316 317 318 321
323 322 321 320 318 316 318 321 321 322 322 323 322 323 325 325 324 324 324 323 323 323 323 323 324 324 323 325 324 322 324 321 319 322 321 317 316 314 317 317 313 310 310 311 313 315 315 315 314 314 317 317 317 318 319 319 319 320 320 321 321 321 319 317 317 316 315 317 319 319 318 318 317 317 317 317 317 317 317 317 317 316 318 320 318 316 317 319
322 322 321 320 318 317 318 320 322 322 322 322 322 322 324 326 325 324 324 324 323 323 323 324 325 325 326 327 325 323 323 320 319 322 322 319 318 316 316 317 313 310 309 311 313 314 315 315 314 315 317 317 317 318 319 318 319 319 318 320 320 320 319 316 315 315 314 316 318 319 318 317 316 316 316 317 317 316 317 317 318 317 317 321 318 315 317 318
322 321 321 320 318 317 317 320 322 322 322 322 322 321 322 325 326 325 324 324 324 323 323 323 324 325 325 324 323 322 321 321 317 318 320 320 320 318 317 317 313 309 309 312 314 314 315 314 314 315 316 317 317 317 318 318 318 319 318 319 318 318 318 316 314 314 314 316 318 318 317 317 316 317 316 317 317 316 317 316 316 316 317 321 319 315 316 317
322 321 320 319 317 317 317 320 322 322 322 321 321 321 320 323 325 325 325 324 324 324 323 324 326 324 321 322 320 316 316 318 312 313 317 320 320 319 317 315 312 309 310 313 314 314 314 314 314 315 316 316 317 317 318 318 318 319 319 318 316 316 316 315 314 313 313 315 317 317 316 317 317 317 316 316 317 316 316 315 315 314 316 318 317 315 315 316
321 321 320 319 317 316 317 319 321 321 322 321 321 320 320 321 323 325 325 325 325 324 325 326 324 322 323 323 316 310 312 315 312 311 315 318 317 317 316 314 311 309 310 313 314 314 314 313 314 315 315 316 317 317 318 318 317 318 318 318 316 316 315 313 313 313 313 314 314 315 316 317 316 316 315 316 317 316 316 315 315 314 314 315 316 315 314 315
321 320 319 317 316 315 315 317 319 320 321 320 320 320 319 319 322 325 326 325 325 326 328 325 321 321 321 317 311 309 313 314 314 312 313 315 314 313 313 312 310 309 311 314 313 313 313 313 314 315 315 316 317 317 317 317 317 318 318 318 316 316 314 313 314 313 313 314 314 315 317 316 314 314 316 317 316 316 316 315 315 315 314 314 315 315 314 314
320 320 318 316 316 315 314 316 319 320 320 320 319 319 319 318 320 324 326 326 326 327 327 322 319 318 312 309 309 311 313 315 315 313 311 312 311 310 311 310 310 309 312 314 313 313 312 313 314 315 315 315 317 317 318 317 317 318 317 317 316 316 315 314 315 314 314 314 313 316 317 315 314 314 316 317 316 316 315 315 315 314 315 315 315 315 315 315
320 319 318 316 316 316 315 316 318 319 319 319 319 319 318 318 319 323 325 326 327 327 323 318 316 314 308 308 312 312 314 315 314 313 311 311 311 309 309 309 309 310 313 314 314 313 312 312 313 314 314 314 316 316 317 316 316 317 317 316 315 315 315 314 315 314 315 315 314 316 317 316 314 314 317 316 315 315 315 315 315 314 315 318 318 315 314 315
319 318 317 316 316 315 314 315 317 318 318 318 318 319 318 317 319 322 324 324 326 323 320 316 312 309 307 308 312 312 314 314 312 312 311 310 310 309 308 309 310 312 313 314 314 312 311 311 312 313 313 314 315 315 316 315 316 317 316 316 315 315 316 315 316 315 315 316 314 315 315 315 315 315 316 316 315 314 314 315 315 314 315 319 320 316 314 314
318 316 316 316 315 315 314 314 316 316 317 317 318 317 316 317 319 321 321 323 323 320 317 314 308 307 307 309 310 310 312 312 311 311 310 310 310 309 309 310 312 314 314 314 314 312 310 311 312 313 313 314 315 314 314 315 316 316 316 316 315 316 316 315 316 314 315 315 313 314 314 315 317 317 316 316 315 314 314 315 316 315 316 317 318 315 314 314
316 315 315 316 316 314 313 313 315 316 317 317 317 316 315 317 318 318 319 320 320 317 313 310 307 307 308 309 310 309 310 311 312 311 310 311 310 310 310 312 313 315 315 314 312 311 311 312 312 312 312 314 314 314 314 314 315 316 316 316 316 315 315 315 315 315 315 314 314 314 313 315 317 317 315 315 314 314 315 315 316 316 317 316 315 314 314 314
315 315 316 316 315 314 314 315 316 317 317 316 316 316 315 317 317 315 316 316 315 312 308 307 306 307 308 309 309 309 309 310 312 312 310 311 311 311 312 313 313 313 312 312 311 311 312 312 312 313 313 313 313 313 314 314 315 315 314 314 315 315 315 316 315 315 315 314 314 315 313 315 317 315 313 313 313 314 315 316 316 316 316 316 315 314 314 314
314 316 316 316 315 314 316 317 317 316 315 315 316 316 316 316 314 312 312 311 310 308 306 306 306 308 309 309 310 310 310 310 312 313 312 313 313 313 313 312 312 311 310 310 310 311 312 312 313 314 313 313 313 314 314 314 314 316 314 313 315 315 315 316 315 315 316 315 315 314 314 316 316 315 312 312 313 313 314 315 316 316 315 315 316 315 315 315
315 316 316 315 314 315 317 316 315 314 315 316 315 315 315 313 311 309 308 308 307 306 306 307 307 308 309 310 311 311 310 309 311 314 313 313 315 314 312 311 311 310 310 310 310 311 311 312 313 313 313 313 314 315 314 313 313 314 314 314 316 315 314 315 314 314 315 315 315 315 314 315 316 316 314 313 313 314 315 315 315 316 316 315 315 316 315 315
315 316 315 315 315 315 316 315 315 315 316 316 315 314 312 311 309 308 307 306 307 307 307 308 308 308 309 310 312 312 311 309 311 314 314 313 315 314 312 311 311 311 311 311 311 312 312 313 313 313 313 313 314 315 314 313 314 314 314 315 316 316 314 315 315 314 314 314 315 315 314 315 315 317 316 314 314 314 315 315 316 316 316 316 316 316 316 315
315 315 314 315 314 314 314 315 316 316 316 314 313 312 311 311 311 310 307 306 308 309 309 310 310 310 309 309 312 313 311 309 311 313 313 313 314 313 312 312 311 312 312 312 312 313 313 313 313 313 313 313 314 315 314 315 315 315 315 315 316 315 314 315 315 313 314 314 315 315 315 315 315 316 317 316 315 315 315 315 315 316 316 316 316 316 316 316
315 315 315 315 314 313 314 315 315 316 314 313 312 312 313 313 313 312 310 309 309 310 309 310 310 310 311 310 311 312 311 310 311 313 313 313 313 313 313 313 313 312 312 312 313 314 314 314 313 314 314 314 314 314 314 315 316 316 316 315 315 314 313 315 314 312 313 314 315 315 315 316 316 316 317 317 316 315 316 316 315 316 316 316 316 316 316 317
315 315 315 315 314 314 314 314 315 314 313 312 312 313 314 313 312 312 311 311 310 309 310 310 309 310 311 311 311 311 311 312 312 313 313 313 313 313 313 314 313 313 313 313 314 314 314 314 314 314 315 314 314 314 314 314 314 315 315 314 314 314 313 314 313 312 313 313 315 315 315 315 316 316 316 317 317 316 316 316 316 316 316 317 317 317 317 317
315 315 315 315 314 313 313 314 313 313 312 312 313 314 312 311 311 310 310 310 309 309 310 309 309 310 310 311 312 311 312 313 313 313 312 313 313 313 314 313 313 313 314 314 314 314 313 313 314 314 314 314 314 314 313 314 314 314 315 314 313 314 313 313 312 312 312 312 314 316 315 315 316 316 316 317 317 317 317 316 316 316 316 317 318 318 318 317
314 315 314 314 313 312 312 312 313 312 312 313 314 312 311 310 310 308 308 310 309 309 310 309 310 310 310 312 313 312 313 313 313 313 312 313 313 314 314 313 312 313 314 314 314 313 312 313 314 314 314 314 313 313 313 314 314 314 315 313 313 315 313 312 313 312 312 312 313 315 315 315 315 315 316 317 317 317 318 317 317 317 317 317 318 318 317 316
314 314 314 313 311 311 311 312 312 312 312 314 313 310 310 310 309 308 310 310 310 309 310 310 310 310 311 313 312 312 313 313 314 313 312 313 313 313 314 313 313 313 313 313 313 313 313 311 311 313 314 313 313 313 313 313 313 316 317 315 315 316 314 313 314 312 312 312 312 313 313 313 315 315 316 317 316 316 316 316 316 316 316 316 316 316 316 316
314 314 313 312 310 311 311 312 312 311 312 313 312 309 309 309 308 310 311 311 311 310 309 310 310 310 311 312 312 312 312 313 314 313 312 313 313 313 313 313 313 313 312 312 312 313 313 309 309 312 313 313 314 313 314 314 312 314 317 316 315 315 314 314 314 313 313 313 314 314 311 312 315 316 316 316 315 314 315 314 314 315 314 314 314 314 314 315
314 314 313 311 311 311 311 312 311 311 313 312 309 308 309 308 309 311 312 312 311 311 309 310 311 311 312 312 312 311 311 313 314 313 312 312 312 312 312 312 312 312 313 313 313 313 311 307 309 313 313 315 315 313 314 315 312 313 316 317 314 315 316 315 316 315 313 313 313 313 312 311 314 316 316 316 314 314 315 314 315 315 314 314 313 313 313 313
313 313 312 311 311 312 311 312 311 312 313 311 308 309 309 308 310 312 312 312 312 311 309 309 310 311 312 312 311 311 312 313 313 312 312 312 312 312 312 311 311 311 312 312 313 312 310 308 311 314 314 315 314 313 315 315 312 315 317 317 315 316 317 316 316 315 314 314 313 313 315 313 312 315 316 315 314 314 315 315 315 315 315 315 315 314 313 312
313 312 312 311 311 312 311 311 311 312 311 308 308 309 308 309 310 311 312 312 312 311 310 309 309 311 312 312 311 311 313 313 314 313 312 312 312 312 312 312 311 311 311 312 313 312 311 311 313 314 314 315 314 315 317 315 313 316 315 316 316 317 318 317 316 315 314 315 312 314 316 312 311 315 315 314 314 314 315 315 316 316 316 316 315 314 313 313
312 312 311 310 311 311 311 311 311 311 309 308 309 308 308 309 310 310 311 312 312 310 309 309 309 311 312 311 310 312 313 313 314 313 312 312 311 311 312 312 312 311 310 312 314 313 311 311 312 314 315 315 313 312 315 317 315 314 313 315 317 317 317 317 316 315 314 313 313 315 315 312 311 313 314 314 313 314 315 315 316 317 316 315 314 314 314 314
311 311 310 311 311 311 312 311 310 309 308 308 309 308 308 309 309 310 311 312 312 309 309 309 310 312 312 310 310 312 313 313 313 313 312 311 311 311 311 312 312 312 312 314 315 312 311 309 310 313 313 312 310 309 312 316 315 313 315 316 316 316 315 315 315 314 313 313 314 314 314 313 311 312 315 315 313 314 315 315 316 316 315 314 314 314 314 315
311 310 310 310 310 310 311 311 310 308 308 308 308 308 308 309 310 311 311 313 312 310 309 309 311 312 311 311 311 312 313 313 313 312 311 311 311 310 311 312 312 313 313 313 314 313 311 310 311 311 309 310 312 311 311 313 313 315 317 315 314 314 314 313 313 313 313 313 312 310 312 314 311 311 314 313 312 313 315 315 315 315 314 314 314 314 314 314
310 310 310 310 310 310 310 310 308 308 308 308 308 308 308 309 310 311 311 311 312 310 310 311 312 312 311 312 312 312 313 313 313 313 312 312 311 311 311 312 312 312 311 312 313 314 313 312 312 311 309 310 314 313 311 312 313 316 315 313 313 313 314 314 314 313 313 312 310 308 311 313 312 312 314 313 312 312 314 315 315 314 314 314 314 314 314 314
310 309 309 310 310 309 309 309 308 308 308 308 308 309 310 310 310 311 311 311 312 311 311 312 312 312 312 313 313 313 314 314 313 313 312 313 312 312 313 313 313 314 313 313 314 314 314 313 313 313 311 310 314 313 312 312 312 314 314 313 312 313 314 315 314 313 313 311 308 309 311 312 312 313 314 314 314 313 314 314 313 313 312 313 313 314 314 315
310 309 310 310 309 308 308 308 308 308 308 308 309 310 311 311 311 312 311 311 312 311 311 312 312 312 312 312 314 314 313 313 313 313 313 313 313 313 313 313 314 315 314 314 314 314 315 313 312 314 312 312 313 314 314 314 313 315 317 315 313 314 314 314 314 314 314 312 309 309 311 312 312 312 313 313 312 312 312 311 310 310 310 312 313 313 314 315
311 310 310 309 308 307 308 308 308 308 308 308 309 310 311 312 311 311 312 312 311 311 312 312 313 313 312 313 314 313 313 313 313 313 314 313 313 313 313 312 313 315 314 314 314 313 314 313 312 311 311 312 313 314 314 315 314 314 316 316 314 314 314 312 311 312 312 312 311 310 311 312 313 313 313 312 311 311 311 309 309 310 311 312 313 314 314 314
311 311 311 309 308 307 307 307 308 308 308 309 310 310 311 312 312 312 312 311 311 312 312 313 313 313 313 314 314 313 313 314 313 313 313 313 313 314 313 313 313 313 313 314 314 313 314 314 312 311 310 310 310 311 312 313 314 314 313 314 313 314 314 311 309 309 309 311 312 312 312 312 313 314 313 313 311 311 311 310 310 311 312 313 315 316 315 314
312 312 312 310 309 308 307 308 308 308 309 310 310 311 313 312 312 313 312 311 312 312 312 313 314 313 313 313 313 313 313 314 314 314 314 313 313 314 314 314 313 313 313 314 314 314 314 313 312 312 313 310 307 309 311 310 312 313 313 314 312 312 313 310 311 311 310 311 312 312 312 311 311 313 313 313 312 312 311 310 311 312 314 316 317 316 314 314
312 312 312 311 310 308 307 308 308 308 310 311 310 312 315 313 312 313 312 311 312 312 313 313 313 313 314 313 312 313 313 314 314 314 314 313 313 314 314 313 314 313 313 313 313 315 315 314 312 311 313 311 308 310 312 310 310 311 312 313 312 312 312 310 311 312 312 312 312 311 311 311 311 312 313 313 313 313 312 311 312 313 315 317 317 315 314 313
312 312 313 312 310 308 307 308 309 310 310 310 310 312 314 313 312 314 313 312 313 313 313 313 314 314 314 313 313 313 312 313 313 314 315 313 313 314 314 314 314 313 312 312 312 315 315 314 314 311 311 312 310 311 313 312 311 310 311 312 312 313 313 311 312 312 312 312 312 312 311 311 313 313 313 313 313 313 313 312 312 313 316 317 316 315 313 313
312 313 313 312 310 309 308 308 310 311 310 310 311 312 314 314 311 312 313 314 314 313 313 314 314 314 315 314 313 314 312 313 314 313 314 313 312 313 313 313 314 313 312 312 313 315 313 312 314 312 310 312 312 312 314 314 312 310 311 311 311 312 312 311 313 311 312 312 311 313 312 311 313 314 313 313 313 314 314 313 313 314 316 317 315 314 313 312
313 314 313 311 311 309 308 310 311 311 310 310 311 312 313 313 311 310 312 314 314 313 313 315 314 314 315 315 314 314 313 314 314 313 314 314 312 312 313 313 313 313 312 311 312 314 312 311 314 313 311 313 313 312 312 313 314 312 312 312 312 313 312 313 314 312 311 311 311 312 312 312 313 313 313 313 312 313 314 314 313 315 316 316 314 313 313 313
313 314 313 311 310 309 310 311 311 311 311 311 312 313 313 312 311 311 311 313 314 313 312 315 316 315 315 315 315 315 314 314 315 314 314 314 313 313 313 313 312 312 312 312 313 314 314 314 315 314 313 313 313 311 308 310 313 313 313 313 313 313 312 313 314 313 311 309 308 310 311 312 313 311 310 311 310 310 311 313 315 315 316 316 314 313 313 313
311 312 312 311 310 310 311 312 312 312 312 311 312 314 314 313 312 312 312 312 314 314 313 314 316 315 315 315 315 315 314 314 315 315 314 315 314 312 311 311 312 311 311 312 313 312 314 316 316 313 313 312 311 311 309 310 312 313 312 313 313 314 314 313 312 313 312 310 309 311 312 313 313 310 308 309 309 308 307 310 314 316 316 315 314 313 313 313
309 310 311 311 310 311 312 312 312 313 313 311 312 313 313 314 313 312 311 312 313 313 312 314 314 314 315 315 314 315 314 314 315 315 315 316 313 310 309 310 311 311 311 312 313 312 312 316 316 314 314 313 313 313 312 312 312 312 313 313 313 314 315 312 311 311 312 313 313 312 312 313 313 310 309 309 308 308 308 308 311 315 316 315 313 313 313 313
309 310 310 311 312 312 313 312 312 313 312 311 312 313 312 313 313 312 313 314 314 314 312 314 314 313 314 314 314 315 314 314 315 315 315 315 313 309 309 310 310 311 311 312 312 312 313 315 315 314 315 314 315 315 314 314 313 312 314 314 314 314 314 312 312 312 313 315 316 313 312 313 312 310 310 310 309 309 309 308 309 313 316 314 313 313 312 312
308 309 309 310 311 312 312 312 312 313 312 311 312 313 312 312 311 312 314 313 313 315 314 314 314 313 313 313 314 315 315 316 316 315 314 314 313 311 309 309 310 311 310 311 311 314 316 316 313 314 314 314 314 315 316 317 315 314 315 315 315 314 314 314 314 313 313 315 316 314 313 313 312 310 310 311 310 310 310 309 308 312 315 314 313 312 312 312
307 308 308 309 311 311 311 311 312 312 312 310 311 312 312 313 311 311 313 313 313 314 314 313 313 313 313 313 314 314 314 316 315 314 315 314 313 311 309 308 309 310 309 310 311 313 315 314 313 315 315 314 314 315 318 319 317 316 316 316 316 315 315 315 314 314 315 315 314 315 315 315 313 312 311 312 311 311 311 310 308 311 314 314 312 312 311 311
305 305 305 307 309 310 311 312 311 312 312 310 311 312 312 313 312 311 312 313 314 315 314 313 313 313 313 313 314 314 314 315 314 314 316 315 313 311 310 309 309 308 310 312 312 312 313 312 314 315 315 316 316 316 318 318 317 317 317 317 316 315 315 315 315 315 315 315 314 314 316 315 314 312 312 313 313 312 312 311 309 311 314 313 312 312 311 311
302 303 303 305 307 308 311 312 311 311 311 310 311 312 312 313 312 312 313 313 314 314 314 314 314 313 313 313 313 314 315 315 315 315 315 314 313 312 310 310 309 308 310 313 312 312 312 312 314 315 315 315 316 316 317 317 317 317 317 317 317 315 315 314 314 314 315 315 315 314 316 317 316 314 313 314 314 313 312 311 310 311 313 312 312 311 310 310
301 302 303 304 305 307 310 311 311 311 311 310 311 312 312 312 312 313 314 314 314 314 315 315 314 314 314 314 313 314 315 315 315 315 314 313 312 312 311 311 311 310 310 312 312 311 311 313 315 314 313 314 316 318 318 317 317 318 318 319 318 316 315 314 314 314 314 315 315 315 316 317 316 315 314 313 313 312 311 310 310 311 312 312 311 311 310 310
302 302 302 303 304 305 309 311 311 311 311 311 310 311 312 312 312 314 314 314 314 315 315 315 315 315 315 314 314 314 315 315 315 315 314 312 312 313 313 313 312 311 311 311 312 311 311 313 315 314 313 313 316 317 317 315 315 315 318 320 319 317 316 315 314 314 314 314 315 316 316 316 315 315 315 312 311 311 311 311 310 311 312 311 311 310 311 311
302 302 301 303 304 303 306 311 312 311 311 311 310 311 312 311 313 313 313 313 315 315 315 315 316 315 313 314 315 314 314 313 313 314 313 313 313 313 313 313 312 312 311 311 312 311 310 312 314 313 313 314 315 315 313 312 312 312 314 317 317 317 316 315 315 314 314 314 315 315 315 315 314 315 314 313 312 312 312 311 311 311 311 311 311 311 311 311
Wind_Speed
39 37 36 34 33 32 33 36 39 41 42 44 46 46 48 48 46 46 44 41 38 36 34 32 26 23 27 29 29 32 31 26 20 19 22 18 19 20 18 17 12 10 11 13 14 15 13 11 12 12 11 10 9 9 9 9 10 7 4 5 5 5 3 4 5 2 2 6 10 11 13 9 7 9 7 6 7 4 4 6 5 5 6 5 4 8 13 15
37 36 35 33 33 32 33 36 37 38 39 40 45 46 47 48 47 46 45 43 39 37 33 31 27 23 26 29 32 32 31 28 24 26 25 19 19 20 18 17 15 13 13 15 16 16 14 12 13 13 12 10 8 9 9 9 10 6 3 5 5 2 3 2 3 4 4 4 11 12 11 7 5 10 9 6 7 8 6 7 7 6 7 9 6 7 12 16
36 35 34 33 32 32 35 38 38 39 39 39 43 45 46 47 47 46 46 44 41 38 33 31 29 25 24 26 29 30 30 26 25 31 26 17 18 20 19 17 15 15 15 16 16 15 13 11 12 13 13 9 8 10 9 10 10 4 3 5 3 4 5 4 5 5 6 4 9 12 10 6 4 8 9 7 6 8 8 8 9 9 10 11 9 8 12 16
38 35 34 32 31 32 36 39 39 39 40 39 41 44 46 46 46 46 46 44 42 39 35 33 33 30 28 28 27 27 26 17 20 32 27 22 22 21 22 18 15 17 16 17 17 15 11 10 12 13 12 9 9 10 9 11 8 4 4 3 3 4 4 5 5 4 4 3 5 10 9 7 5 7 8 6 5 7 9 8 8 9 11 14 13 9 12 17
40 36 34 32 32 33 37 40 40 38 39 40 40 42 44 45 45 45 45 44 42 40 38 36 36 34 31 32 30 29 22 8 16 31 29 31 29 22 24 20 17 18 17 17 17 16 12 10 12 13 11 10 11 10 10 13 8 5 3 3 6 3 2 5 4 2 2 1 4 9 8 8 7 7 8 8 6 2 3 6 7 6 6 12 16 12 12 17
40 37 35 33 32 34 38 41 39 37 38 39 39 39 42 43 44 44 44 44 42 40 40 39 37 34 31 31 28 26 22 5 9 24 28 33 33 29 27 23 20 18 18 17 17 17 12 12 14 13 12 9 13 12 9 13 9 5 3 3 5 3 3 5 3 2 3 2 4 7 6 7 8 7 7 9 8 3 5 4 6 7 7 10 13 13 14 16
41 38 36 34 34 35 39 41 40 37 37 38 37 37 40 42 42 42 43 42 41 39 40 41 38 34 30 29 22 22 24 13 3 10 19 27 32 34 29 23 22 20 20 19 17 17 13 14 15 14 12 7 13 14 10 12 10 6 4 7 5 5 4 4 2 3 4 2 3 5 5 6 7 5 4 10 10 3 3 4 3 5 9 12 12 11 14 15
42 39 36 34 35 36 39 41 40 38 36 36 36 36 38 40 40 41 41 41 40 38 39 40 36 32 29 27 23 21 26 24 10 5 14 24 29 32 30 25 23 21 22 21 19 18 14 15 17 15 12 8 12 12 11 12 10 9 5 9 6 6 5 5 3 4 4 3 2 4 5 4 4 3 3 9 8 6 10 8 6 4 5 10 13 12 13 15
42 39 37 35 36 36 38 42 41 39 37 36 35 35 36 38 39 39 40 40 39 38 39 38 32 29 27 27 24 17 24 29 20 10 12 19 22 25 28 26 24 23 23 21 19 18 14 15 17 14 8 7 12 12 14 12 8 8 6 10 9 7 7 5 4 4 3 3 3 6 6 3 2 3 6 9 8 9 11 11 12 10 7 7 10 13 13 14
42 40 38 37 37 36 38 42 41 39 37 35 34 33 34 36 38 39 40 40 39 38 38 34 29 28 28 28 21 11 19 26 25 19 12 9 14 20 26 26 24 24 24 21 18 17 16 14 15 13 7 5 9 10 15 11 6 11 10 10 9 7 7 5 4 5 3 4 4 5 4 3 2 3 5 8 11 14 13 11 13 14 12 10 10 12 13 15
42 41 38 38 39 38 39 42 41 37 36 35 33 32 33 36 37 38 40 40 39 38 36 31 28 30 31 30 21 11 13 20 24 25 16 8 11 21 25 24 24 24 24 22 19 17 18 16 14 13 5 4 8 7 9 7 7 15 14 10 8 7 6 5 5 6 3 4 4 3 2 3 3 4 5 7 10 11 10 11 13 15 13 11 12 13 13 15
42 40 38 38 39 38 39 41 40 36 34 35 35 32 33 35 36 38 40 39 39 37 34 31 30 32 31 26 21 14 10 14 19 24 22 13 12 20 23 23 23 23 22 19 18 17 18 17 15 14 7 4 8 5 5 6 8 14 14 8 7 6 5 6 5 6 3 3 5 1 3 6 7 10 10 9 10 8 9 7 8 13 13 12 13 15 16 16
42 41 38 38 37 37 38 39 39 37 35 35 34 32 32 34 35 37 39 39 39 35 33 31 31 33 27 19 21 18 10 11 14 18 22 16 14 20 22 22 22 22 20 17 17 17 18 16 12 14 12 6 5 5 6 8 9 12 10 5 6 5 6 8 7 5 4 4 7 3 4 7 11 14 11 11 12 10 9 7 6 8 11 13 15 17 17 17
42 41 39 39 37 36 37 37 39 38 36 34 32 31 31 34 34 36 38 38 37 34 32 32 31 31 23 15 17 20 16 12 12 15 18 15 16 21 21 22 21 19 20 18 16 16 16 14 10 10 11 6 4 6 7 7 6 8 6 4 6 6 6 9 8 8 6 6 8 5 5 7 5 10 9 11 13 10 9 9 9 8 9 12 16 17 18 18
42 42 40 39 38 38 38 39 39 37 35 32 30 31 31 33 33 34 36 35 35 33 32 30 30 25 17 13 11 19 22 15 12 15 17 16 18 20 20 21 19 18 19 17 16 16 15 14 11 8 6 6 8 7 6 5 5 7 6 5 7 6 5 7 7 8 6 5 8 6 6 8 3 9 6 9 11 11 10 9 9 9 9 10 13 16 17 18
43 43 41 40 41 41 39 38 36 33 33 32 31 31 31 32 32 32 32 33 33 32 29 28 30 21 9 11 11 17 24 20 15 15 17 19 19 19 20 19 17 18 17 16 15 14 14 11 8 7 7 8 8 6 5 5 5 6 7 7 8 8 6 5 5 6 4 5 9 9 6 7 3 8 5 6 8 9 9 9 9 9 9 9 10 13 15 17
44 43 41 42 43 42 40 36 33 32 33 33 30 29 31 30 30 30 30 32 31 30 28 25 27 17 7 11 12 15 24 24 18 16 17 20 20 19 19 18 17 17 15 14 13 11 12 10 6 6 6 8 8 7 6 6 6 6 6 5 6 10 9 5 4 5 6 5 8 10 9 11 4 7 7 7 7 8 7 8 9 9 10 10 9 11 13 15
45 43 42 43 43 43 41 35 35 35 34 33 29 28 30 28 28 28 30 32 28 26 22 21 24 13 8 13 12 13 24 26 20 16 18 21 20 19 19 18 17 16 15 11 11 12 11 9 7 7 6 9 9 9 8 7 7 8 8 5 4 8 11 8 4 6 9 7 7 10 11 15 12 6 7 9 9 7 7 7 7 8 9 9 10 11 12 14
45 43 43 43 42 43 41 37 37 37 36 33 30 30 28 26 24 22 29 34 29 19 10 19 27 7 3 15 15 12 19 24 20 17 19 21 20 19 19 18 18 19 15 10 9 12 11 7 7 8 8 9 10 12 9 5 7 11 10 8 6 7 9 5 5 4 6 6 9 12 12 12 13 12 9 9 11 8 8 8 8 9 9 10 11 12 13 15
44 44 44 42 41 41 40 41 39 37 38 36 37 36 27 26 18 12 27 32 27 17 5 20 31 6 4 17 23 15 16 20 19 18 21 22 21 18 16 16 17 16 11 9 9 10 11 7 7 9 10 12 13 12 5 2 4 8 8 6 5 7 6 4 7 4 2 4 9 12 12 13 13 12 12 10 10 9 11 12 13 12 12 12 12 13 14 15
46 45 44 42 41 39 39 42 39 40 40 39 45 35 25 31 17 15 34 24 16 15 6 23 32 8 1 18 26 22 19 17 17 20 21 21 22 17 14 15 13 10 9 12 10 8 9 8 10 12 10 11 12 8 3 3 4 6 6 5 5 6 3 4 5 4 2 2 6 7 10 14 13 12 13 14 11 12 14 16 17 17 15 15 14 15 16 16
46 45 44 41 39 37 38 40 39 42 39 40 43 23 20 27 12 24 39 16 7 11 10 28 28 7 6 18 24 25 20 14 14 22 22 23 23 15 13 13 10 8 8 10 9 6 8 9 12 10 4 5 6 4 3 2 3 4 5 6 5 4 4 4 4 5 3 3 3 2 6 11 12 12 14 15 14 14 16 17 16 16 16 15 14 14 16 19
45 44 43 39 38 37 38 40 40 42 40 41 37 18 18 19 12 30 34 14 11 11 12 27 20 6 10 17 22 22 17 12 13 21 25 25 20 13 14 13 10 9 8 10 9 7 8 7 6 7 7 6 5 4 5 3 4 4 4 6 5 5 4 2 3 5 3 2 2 3 5 9 10 11 13 16 17 14 14 15 15 16 16 15 14 14 16 21
45 45 42 38 38 38 40 41 39 41 40 37 29 19 19 18 25 37 24 11 10 7 12 22 17 13 13 17 21 15 12 11 11 20 27 24 16 12 14 12 9 9 8 13 13 10 6 1 1 4 7 9 7 7 8 6 5 4 4 5 4 7 5 2 5 6 2 2 2 4 6 8 9 12 12 10 10 10 11 13 15 19 21 21 21 21 22 24
46 44 40 39 39 41 42 41 40 41 37 32 26 22 23 27 37 36 17 9 7 5 10 16 15 16 14 18 19 11 10 10 9 21 27 22 15 12 11 7 7 9 11 14 13 10 4 2 1 5 7 10 9 8 9 8 6 5 5 4 1 6 6 6 7 6 2 4 4 2 5 5 5 10 10 5 4 7 8 10 13 15 18 20 22 24 24 25
46 42 40 40 41 44 42 37 40 39 33 31 29 27 32 38 39 30 13 6 5 5 8 11 12 14 15 18 19 14 10 7 10 23 28 20 15 13 9 5 2 5 10 10 6 4 2 2 1 5 8 8 7 8 9 8 7 5 4 2 3 4 7 8 7 5 2 2 2 2 6 4 2 6 7 5 4 6 7 7 10 10 10 12 15 18 20 22
46 42 42 42 44 48 42 37 40 38 32 32 31 33 39 41 36 26 11 3 6 8 9 10 10 13 14 17 22 15 7 10 13 19 25 20 16 12 9 7 3 1 4 5 3 1 4 5 2 5 8 7 7 7 8 9 8 3 0 2 5 5 7 9 7 5 2 1 2 2 4 4 5 3 4 5 4 7 8 8 8 8 8 8 9 12 16 18
45 44 44 44 48 46 36 34 40 41 37 34 34 38 41 39 34 22 7 3 7 8 8 8 8 13 14 17 20 8 6 17 13 12 22 20 14 10 6 8 8 5 3 2 6 1 3 6 6 8 8 7 5 2 5 11 8 0 2 0 4 4 5 8 6 4 1 0 3 5 3 4 6 3 4 3 6 9 9 9 9 8 7 6 6 9 14 15
45 44 45 46 46 38 26 29 39 42 38 34 37 40 39 36 28 12 4 4 7 6 8 10 10 12 14 15 13 4 9 12 4 11 21 16 12 7 3 7 10 9 5 3 2 1 2 2 3 5 6 5 2 5 2 5 4 4 4 4 6 4 4 4 4 3 2 4 6 5 5 5 5 4 4 4 5 8 8 7 8 8 7 4 5 8 11 12
46 45 47 47 45 36 24 25 37 40 36 36 39 39 37 29 17 7 6 6 6 6 8 11 12 14 15 14 8 6 9 5 6 17 15 8 10 5 5 10 9 8 4 5 5 3 2 1 1 1 1 2 5 6 6 3 5 9 7 7 7 4 4 2 2 2 4 6 3 3 2 4 4 4 5 3 2 4 4 5 7 6 6 4 3 6 8 9
46 46 48 48 45 36 25 28 40 41 37 39 41 39 31 17 8 7 7 6 7 6 6 10 13 15 18 16 8 8 7 5 12 19 11 6 7 6 8 8 5 5 3 2 4 3 3 3 1 2 2 3 5 6 6 4 5 6 5 7 6 4 3 3 3 3 6 5 1 2 1 3 5 4 2 1 2 1 1 3 6 6 6 4 2 3 6 7
44 46 47 45 40 33 29 36 45 41 38 43 44 36 21 8 7 8 6 8 8 7 8 12 15 15 19 17 10 9 8 6 11 14 12 9 7 7 8 6 6 5 4 6 4 3 4 3 1 2 1 4 4 6 5 2 2 3 5 8 5 4 4 5 5 5 6 3 2 1 1 3 7 7 5 4 3 3 1 1 5 6 5 4 3 3 5 7
42 43 45 41 35 32 32 39 45 40 40 45 39 24 11 6 9 9 8 8 7 9 12 13 15 16 18 15 9 10 8 5 9 11 11 10 9 9 5 4 8 5 3 7 5 3 3 1 2 3 2 6 6 5 5 4 5 7 8 8 6 6 5 6 6 5 5 1 1 1 1 3 5 6 9 10 6 7 6 4 5 5 4 3 4 5 6 9
39 41 41 36 33 32 32 39 44 40 43 44 28 12 8 8 9 9 10 6 4 10 13 14 16 17 17 13 10 11 5 2 6 8 9 9 8 8 6 6 9 4 2 7 5 6 5 2 4 4 3 6 7 3 2 5 8 6 3 4 6 6 5 5 5 4 3 2 1 2 2 4 3 1 2 1 2 7 9 6 4 5 4 4 7 8 8 10
37 38 35 31 34 32 31 42 45 41 46 39 16 7 10 9 7 10 10 6 6 10 14 17 17 15 14 9 10 11 2 1 6 6 7 9 8 9 9 8 9 5 6 7 4 5 6 2 1 1 1 3 3 2 3 3 7 3 1 1 4 3 1 1 0 1 1 1 2 4 3 4 3 1 3 4 3 4 6 6 5 4 5 7 9 8 9 11
37 33 28 29 35 32 33 45 43 42 46 29 9 8 11 7 6 8 8 8 9 12 16 16 13 12 12 6 8 10 1 2 8 6 6 9 8 9 10 9 10 9 8 7 3 3 5 1 2 1 1 1 1 2 3 1 3 3 2 3 2 1 2 3 1 2 1 4 3 5 4 4 3 5 4 7 5 4 5 6 7 7 7 9 9 8 10 14
36 30 25 27 32 32 39 45 41 43 39 17 8 11 7 3 2 4 9 11 12 16 16 13 9 11 12 7 9 13 6 5 8 6 6 7 7 11 11 9 13 14 10 5 1 2 4 2 2 0 2 2 2 2 2 3 1 2 3 4 3 1 1 1 2 1 2 6 3 4 6 5 4 4 2 6 6 7 7 7 8 10 10 10 10 10 13 16
33 28 24 24 30 34 41 43 40 42 27 7 11 13 4 3 1 3 12 14 14 16 13 10 8 10 12 9 10 14 11 8 8 6 7 7 6 12 14 9 12 17 13 4 1 2 3 2 2 2 1 2 1 1 2 0 1 1 1 1 2 2 3 3 3 3 4 6 4 5 7 5 5 4 2 5 8 8 8 9 10 11 12 12 12 12 15 19
32 25 19 23 30 35 40 40 37 33 16 5 12 11 2 4 1 3 13 15 14 13 11 10 9 8 10 11 11 14 13 11 10 8 6 6 5 11 17 11 8 15 14 5 2 3 2 1 1 1 1 2 1 2 4 4 2 1 2 1 0 2 3 3 4 4 4 5 5 4 5 4 5 6 5 6 8 10 11 10 9 12 14 14 14 16 19 21
32 19 13 24 31 33 38 36 28 18 9 7 10 6 5 5 1 3 8 11 9 7 9 11 11 9 10 12 12 13 12 11 12 9 6 7 5 5 13 13 8 11 13 7 2 3 2 1 2 2 0 2 3 3 4 5 5 4 4 5 4 2 0 1 3 3 2 4 6 5 4 3 3 5 8 8 5 6 11 11 9 12 15 14 17 22 25 25
27 12 11 27 31 33 37 27 15 9 6 8 7 4 6 7 5 6 5 5 4 1 3 8 11 10 9 11 12 11 9 9 10 9 5 8 8 4 9 14 11 11 10 6 4 4 2 2 3 4 3 4 2 0 1 0 2 4 5 7 7 6 3 3 4 2 1 3 3 3 4 2 2 1 4 3 1 2 5 9 10 13 15 16 21 26 28 28
17 7 15 30 33 37 34 15 7 9 6 7 4 4 7 7 8 8 5 4 3 2 1 3 7 9 8 9 10 11 10 7 9 10 6 9 11 5 7 14 17 18 12 6 5 3 2 2 4 4 3 2 1 2 1 0 0 2 3 4 5 6 6 6 5 3 3 2 1 1 4 2 2 2 1 2 3 4 2 5 10 14 15 19 25 29 29 29
10 10 20 31 34 37 26 7 6 9 4 4 6 7 6 6 7 9 7 6 4 2 2 3 4 6 6 7 9 11 12 8 9 12 9 8 8 3 6 14 19 18 11 6 5 2 2 3 4 3 2 1 1 2 2 0 1 3 4 4 5 5 5 3 2 1 3 4 2 2 5 4 1 2 2 2 1 1 1 5 10 14 15 19 27 31 30 30
13 18 23 30 34 31 16 5 9 10 6 7 7 5 4 3 6 10 10 8 5 5 6 5 4 4 3 5 7 11 13 8 8 11 7 5 5 3 8 18 19 13 8 8 9 8 5 3 4 4 3 3 3 3 2 2 3 5 5 5 6 4 2 2 0 2 2 6 7 6 7 5 1 2 2 2 2 3 5 7 10 13 15 20 27 30 30 31
15 14 16 25 34 29 11 3 6 9 9 11 9 9 7 3 3 7 9 7 3 4 7 4 4 6 6 6 6 8 12 7 5 9 6 3 4 2 6 18 20 12 8 9 14 14 7 4 6 6 5 6 5 5 6 5 4 4 3 4 8 8 6 5 3 4 5 6 8 7 8 6 1 2 3 4 4 5 6 9 11 12 14 20 26 30 30 31
8 4 7 15 25 25 13 5 4 6 10 12 8 10 11 7 4 3 5 6 1 2 5 4 5 8 8 10 8 8 12 7 1 5 8 5 4 2 2 12 16 11 4 6 16 15 2 3 8 11 9 9 9 9 8 7 6 8 10 10 12 14 13 8 3 5 8 6 5 8 10 9 4 4 6 5 6 7 7 9 11 11 14 21 28 30 30 31
3 2 4 6 10 14 11 9 9 6 11 14 8 9 14 12 8 5 3 3 5 5 4 3 6 10 10 14 11 9 14 9 2 4 8 6 4 4 2 5 8 7 4 7 16 13 2 5 9 11 13 14 13 10 8 10 10 13 15 16 15 15 14 10 8 11 11 7 7 10 13 14 11 8 8 8 7 7 7 11 15 15 17 23 28 29 30 30
2 2 3 3 4 6 8 13 14 10 14 16 8 9 16 14 12 10 4 2 6 8 4 2 7 11 14 15 10 8 12 9 5 6 6 5 5 4 4 2 1 3 2 5 10 7 4 8 9 9 11 11 7 5 7 10 11 11 11 12 13 13 13 13 13 15 12 8 10 14 15 15 14 11 10 9 9 9 9 12 15 15 17 23 28 30 30 31
3 2 3 3 0 1 4 10 13 12 15 15 9 10 17 17 15 12 6 5 6 8 6 7 11 13 15 15 10 9 11 9 8 8 5 5 5 4 4 2 2 2 1 3 3 1 3 7 9 7 9 11 6 4 5 9 9 9 10 10 11 13 14 14 14 15 16 14 15 18 17 14 11 10 11 10 10 10 7 8 13 16 21 26 29 31 31 32
3 2 3 3 2 3 5 11 12 10 11 13 10 9 14 17 16 12 7 7 10 10 8 9 13 14 14 15 13 10 12 13 11 9 9 7 3 4 4 4 4 4 2 3 1 2 2 6 8 6 5 10 6 3 4 6 7 9 10 9 10 12 14 15 14 15 16 16 18 18 16 12 9 9 9 7 10 10 8 9 13 18 23 28 30 32 33 34
4 4 6 5 2 1 4 10 11 9 10 12 10 9 13 18 17 12 6 3 5 9 10 10 12 11 7 11 14 11 11 11 5 8 17 13 7 10 8 5 9 8 4 5 4 2 2 2 5 6 5 8 6 4 5 2 1 6 6 7 11 12 12 14 14 14 14 14 17 15 12 12 9 8 8 8 9 9 9 11 14 17 23 30 33 34 36 37
6 6 6 4 2 0 2 6 9 9 8 10 11 10 11 14 15 13 8 1 2 4 10 11 11 9 4 8 12 7 7 8 4 7 19 13 5 10 8 6 13 12 7 7 5 4 6 4 4 7 8 9 6 3 4 4 1 5 6 10 13 13 13 13 13 14 15 14 13 11 12 12 7 7 9 7 7 8 10 14 17 20 26 33 37 38 38 40
Wind_Direction
206 206 209 210 215 213 205 202 201 202 206 209 208 207 207 207 206 205 206 205 205 205 205 205 208 212 206 205 205 206 218 226 218 221 233 224 203 213 246 260 260 272 259 251 237 208 201 204 197 190 181 180 177 166 176 178 171 184 207 210 219 205 179 170 171 130 94 130 139 158 177 188 164 170 192 184 196 203 170 184 202 207 207 230 201 169 191 197
203 204 208 208 211 210 203 199 199 199 201 205 207 207 207 207 207 206 206 206 205 203 203 206 208 209 206 206 205 209 219 219 221 227 222 214 214 221 239 253 257 263 255 243 229 207 198 199 193 184 174 177 178 169 178 177 178 199 204 206 224 173 89 65 96 72 38 121 146 161 182 196 168 163 180 195 187 189 195 189 195 196 197 219 215 190 199 192
201 202 205 206 207 207 201 197 198 200 200 204 207 207 207 208 208 207 206 207 206 203 203 204 205 205 204 210 208 208 213 215 229 229 211 202 213 217 230 248 254 251 248 238 223 214 210 200 190 183 178 181 180 178 184 180 186 209 210 213 204 105 86 67 70 76 46 68 150 160 174 186 161 155 174 204 185 187 211 191 187 198 193 205 211 198 198 191
201 200 202 202 202 203 200 197 197 200 202 205 207 207 207 207 208 208 207 207 207 205 204 203 205 207 208 215 214 209 210 216 239 229 208 196 200 213 232 245 250 245 243 234 220 215 216 204 193 186 187 188 179 188 190 181 187 188 201 226 96 112 113 89 73 85 66 45 151 150 162 180 163 165 182 204 199 194 217 202 189 202 194 197 206 201 195 194
200 199 200 199 198 199 198 197 197 199 202 205 206 206 206 206 208 208 207 207 207 205 205 205 208 213 214 213 210 206 203 210 240 229 214 204 203 214 234 245 249 243 239 232 218 210 206 201 195 191 201 189 171 189 187 178 182 174 178 35 63 109 106 90 84 121 122 83 155 150 164 171 155 179 195 210 224 164 170 189 187 197 178 186 206 212 196 196
200 199 199 199 197 198 199 198 196 198 203 204 205 205 205 205 206 207 207 206 206 205 205 207 212 214 211 208 204 192 185 190 243 224 216 212 209 213 232 245 244 239 233 226 214 209 205 198 194 192 206 195 180 186 168 170 188 197 171 86 68 55 69 87 92 149 146 173 174 160 159 155 164 189 197 222 236 62 85 162 191 209 187 180 207 219 207 203
199 198 198 199 197 198 199 197 195 198 203 205 206 206 205 205 205 205 205 205 204 203 204 210 214 210 202 200 192 174 188 214 221 199 206 205 202 210 231 241 234 233 224 216 209 207 200 196 195 193 201 199 190 186 158 167 200 228 170 139 103 67 83 91 98 152 151 180 169 160 170 171 192 192 178 229 237 244 244 201 172 200 197 200 215 222 218 216
198 197 198 197 196 197 199 199 198 198 202 205 206 206 206 205 204 203 202 203 202 201 204 209 208 201 198 195 179 173 203 215 205 181 181 188 203 218 232 230 224 226 215 209 207 203 198 199 198 194 203 202 190 180 158 165 201 228 167 137 128 93 99 99 109 141 155 196 169 176 187 171 202 207 214 237 226 225 244 235 214 204 190 203 213 218 219 221
197 197 197 196 195 197 200 201 200 199 200 204 206 207 207 205 204 201 200 201 198 199 204 206 200 190 191 189 176 184 214 211 208 211 178 194 220 225 223 216 215 217 210 206 206 203 200 205 201 199 225 212 187 174 171 178 198 203 151 129 135 116 113 112 116 128 150 182 173 188 182 140 184 233 248 236 214 218 234 241 237 235 235 217 210 215 219 222
196 197 196 195 194 196 200 201 199 198 200 203 205 206 208 206 203 199 197 198 196 197 202 203 195 186 183 180 177 200 222 212 212 214 201 226 231 213 211 208 209 210 205 204 206 205 202 205 204 210 259 242 192 178 180 191 168 147 129 119 126 117 121 127 123 130 139 150 180 208 173 141 164 220 245 206 208 229 232 237 241 238 238 236 228 222 221 224
194 196 195 194 194 195 198 201 200 199 201 203 205 206 208 207 202 196 195 195 193 194 198 196 189 186 181 179 187 208 214 213 218 217 220 252 224 205 206 203 205 204 201 205 206 207 207 207 206 209 249 230 188 178 180 179 134 137 129 112 116 117 127 140 138 146 158 152 185 252 188 155 146 214 239 185 196 221 219 225 237 240 232 225 230 229 227 225
194 195 195 194 194 194 196 201 201 201 202 203 205 205 207 206 199 193 192 191 190 192 194 192 186 184 180 185 204 212 205 209 217 218 220 237 223 204 202 201 201 199 198 207 209 209 209 208 210 213 236 213 169 164 178 159 142 148 148 135 134 147 158 160 146 155 194 171 167 242 249 213 200 217 222 199 205 202 193 203 225 239 228 214 222 228 232 229
193 194 193 192 192 193 194 198 200 203 201 198 201 205 205 202 195 190 189 187 187 189 190 189 186 179 178 197 215 211 207 208 212 217 218 229 219 201 201 200 197 196 196 202 210 211 206 204 210 219 239 247 169 152 148 141 148 157 172 182 156 182 194 167 150 159 189 161 158 191 264 239 211 206 195 192 210 205 200 209 209 227 223 216 223 228 233 231
192 192 190 188 189 190 189 192 195 197 196 195 199 204 202 196 190 187 185 184 184 186 188 186 181 176 181 210 219 210 209 209 211 213 214 217 207 198 199 198 196 197 198 200 206 205 200 201 206 218 236 238 156 145 136 134 163 158 167 203 184 209 186 152 152 167 180 160 162 199 260 264 196 162 172 198 208 203 209 221 211 211 213 218 226 228 231 232
190 190 187 187 186 184 185 186 188 190 194 197 198 199 195 189 185 182 181 181 181 184 184 180 174 174 193 223 226 214 211 214 214 208 205 201 197 196 195 195 195 194 197 200 199 198 198 201 205 206 202 173 150 154 152 148 185 169 168 197 203 216 160 138 158 174 186 161 174 205 243 257 183 129 164 203 202 204 213 221 213 209 210 215 223 228 230 232
189 187 186 186 184 184 183 182 183 186 192 196 195 194 189 182 177 175 176 176 177 180 177 174 173 172 201 223 212 211 211 213 213 205 199 192 190 192 191 190 192 191 190 193 193 193 198 201 205 190 154 158 167 169 158 155 185 187 197 199 191 204 180 147 163 181 189 150 185 217 251 259 165 123 162 187 186 197 209 220 219 218 217 214 220 226 229 231
187 185 186 184 185 186 183 183 186 187 190 191 187 182 177 172 168 166 167 169 172 173 169 170 175 179 234 222 203 205 207 207 206 204 195 187 186 188 188 183 181 183 178 182 186 183 191 192 192 190 169 184 195 180 170 180 187 183 209 215 184 200 203 178 155 171 182 179 204 215 237 258 238 134 155 170 175 185 203 221 223 224 223 221 221 224 229 229
185 183 184 184 185 186 185 188 187 186 188 184 174 167 161 157 157 157 160 162 161 160 167 175 174 185 238 211 199 203 204 202 200 200 190 183 185 185 185 181 172 170 160 160 174 175 181 182 186 198 192 200 202 191 194 195 186 174 186 204 179 198 213 204 153 152 178 201 220 212 225 249 252 213 178 176 179 188 206 215 222 226 223 224 227 231 233 231
183 182 182 182 184 185 187 187 183 183 182 173 163 151 141 139 143 152 159 157 153 154 176 185 178 190 262 191 190 198 200 198 195 194 186 179 180 181 182 178 167 162 153 150 174 180 179 181 196 208 201 199 201 202 207 196 188 184 184 198 186 187 209 189 99 116 185 202 215 224 233 244 250 246 234 204 187 200 222 224 231 233 230 233 234 236 237 237
181 182 181 181 182 183 185 186 185 184 176 164 153 141 136 144 141 155 164 162 167 172 177 180 183 213 15 173 184 186 182 186 191 188 183 178 172 170 168 163 163 166 165 166 167 173 184 192 202 209 205 199 202 205 199 99 176 185 184 201 194 188 196 140 94 95 191 218 218 227 240 251 255 253 254 237 207 214 232 236 237 235 234 235 235 238 240 242
180 181 181 180 181 181 182 185 186 180 170 159 151 147 157 161 154 171 167 164 183 188 180 173 181 208 121 170 177 177 167 167 185 185 180 175 164 161 159 158 167 177 182 174 155 152 186 210 210 209 211 196 193 192 154 96 144 169 181 193 198 200 181 95 91 108 121 238 229 222 245 255 257 258 258 251 236 231 235 237 238 236 235 235 233 235 240 245
180 181 181 179 181 182 183 185 182 173 165 158 157 157 171 169 171 170 159 137 143 165 167 170 177 205 181 172 168 166 161 152 175 182 177 171 167 169 168 171 181 170 162 166 153 152 195 222 211 193 166 150 148 145 165 167 157 172 186 195 206 185 129 97 99 114 133 232 230 209 260 262 260 260 257 251 246 241 239 239 238 236 235 233 229 229 237 244
180 180 179 180 181 181 181 181 177 170 164 164 167 164 168 173 169 158 147 113 123 135 153 168 178 187 158 167 162 156 158 152 165 179 176 172 175 178 170 179 187 156 155 176 174 181 196 219 205 150 125 136 130 154 187 193 190 198 190 196 198 157 157 194 151 133 146 239 302 330 287 272 265 258 252 246 241 238 235 232 231 232 232 230 228 229 236 243
179 178 177 179 177 178 178 175 172 171 168 171 172 159 158 162 151 151 141 110 128 127 154 166 178 183 164 165 166 162 163 151 155 178 177 172 174 174 168 179 182 158 173 190 193 198 182 79 337 143 161 180 168 171 193 203 204 211 212 215 190 161 165 60 121 138 142 207 264 303 282 270 251 242 243 232 225 232 227 224 229 236 240 241 241 241 242 245
178 176 177 175 173 174 172 169 170 171 171 174 169 151 152 154 150 151 140 119 133 128 161 168 175 187 181 170 171 169 156 140 152 176 176 173 171 164 164 176 180 178 187 190 199 209 175 46 290 165 171 189 183 182 197 206 207 207 217 229 173 164 150 100 125 145 190 213 192 228 259 269 226 224 231 194 183 226 215 217 230 234 240 245 247 248 248 249
177 177 176 173 171 171 167 169 173 171 174 175 164 149 152 153 152 153 142 134 163 138 158 173 172 183 186 174 166 158 156 155 167 175 174 175 174 161 157 157 153 190 180 175 203 229 126 96 202 162 160 175 189 202 196 200 219 212 202 174 111 144 141 133 156 176 228 226 135 189 245 261 208 207 207 174 193 222 199 209 224 214 217 233 241 244 245 246
177 177 175 171 171 171 167 170 172 171 176 173 159 153 154 153 155 160 151 157 184 151 152 170 172 181 182 172 165 158 160 156 156 172 176 177 177 171 171 166 144 171 148 142 188 205 114 142 166 162 165 170 192 210 184 193 224 222 74 154 145 156 162 157 175 205 244 61 115 205 244 266 262 221 154 156 216 236 218 210 209 198 199 210 224 236 240 242
177 177 174 172 173 171 166 170 172 172 173 164 155 156 154 154 160 168 172 184 167 141 148 163 170 176 174 171 172 165 138 150 150 174 180 178 173 175 194 186 168 139 89 155 191 166 95 156 165 162 175 186 195 232 165 189 217 209 27 153 137 147 168 169 189 210 221 299 215 197 190 252 260 217 139 168 234 246 232 204 189 186 188 192 211 235 243 244
176 177 174 172 172 168 168 175 173 171 167 156 154 155 152 156 163 171 222 191 148 131 150 156 160 169 166 168 177 165 140 151 142 161 173 178 170 175 198 170 151 123 79 36 139 40 21 167 171 163 187 186 122 26 29 201 197 146 150 105 96 106 126 157 203 197 180 244 235 180 180 244 265 227 182 187 226 241 229 188 172 171 167 179 218 240 250 250
176 175 172 171 170 167 168 174 172 167 160 154 155 153 152 157 162 178 213 189 144 140 147 152 161 165 163 163 176 181 157 137 117 139 153 166 160 158 120 128 129 122 94 46 74 59 19 63 25 64 172 142 95 56 21 20 117 141 152 118 105 117 118 137 202 197 218 236 229 137 183 259 273 243 200 187 240 252 221 170 158 159 157 169 213 240 253 251
173 174 172 170 170 169 164 169 171 164 158 157 155 153 154 158 176 195 186 150 133 139 144 156 161 163 171 172 168 178 161 118 139 144 144 151 141 135 132 130 127 126 133 114 103 77 83 126 130 73 108 140 118 85 41 42 137 149 156 141 128 127 144 182 181 200 235 233 164 73 311 252 242 238 176 109 20 347 272 186 168 163 157 152 167 218 234 231
172 174 171 168 170 172 168 170 167 160 159 160 155 156 158 158 197 204 164 144 154 170 175 169 163 167 180 178 158 159 149 126 159 161 157 163 159 163 171 177 166 152 184 186 153 113 116 115 85 75 142 205 167 113 80 74 177 202 174 162 171 169 172 208 194 201 230 222 99 107 268 243 243 249 247 256 238 193 222 152 146 149 143 131 137 187 203 195
172 171 167 168 173 171 170 169 163 159 162 160 156 161 169 170 194 196 170 163 160 161 167 166 165 169 178 175 154 151 141 130 171 170 159 166 172 176 189 199 184 190 202 171 147 142 148 103 155 146 184 223 210 158 144 172 189 198 186 180 197 182 180 207 198 206 225 188 75 196 244 252 257 260 252 259 244 173 151 116 110 128 136 135 158 175 175 173
169 167 165 172 175 169 170 168 163 162 162 158 157 169 185 189 196 186 174 170 139 146 156 157 158 166 178 179 159 153 138 107 167 162 156 165 173 181 192 200 200 216 150 155 157 172 181 188 181 169 155 194 210 207 149 170 181 194 197 201 212 203 205 210 200 207 195 115 108 193 223 233 238 99 162 283 44 128 145 152 145 144 166 181 174 168 161 162
159 162 166 173 173 170 170 168 167 166 162 159 160 179 191 195 191 185 175 151 145 149 147 151 154 163 178 174 158 165 153 58 176 164 157 172 183 185 186 192 199 197 161 160 161 180 195 210 130 91 49 178 197 315 340 169 174 186 354 230 229 235 212 174 183 165 127 91 169 186 239 251 261 282 170 147 104 133 158 178 183 170 179 181 169 160 159 162
151 158 166 170 172 173 169 168 170 167 163 163 168 189 199 197 180 186 165 136 153 150 139 148 159 166 173 159 166 184 205 115 172 172 168 186 196 188 186 186 185 191 190 173 148 176 190 183 39 66 68 55 22 351 335 305 174 167 178 192 208 2 68 121 147 90 92 265 203 168 236 258 265 267 208 165 176 186 172 180 186 176 167 166 163 160 163 164
150 156 164 169 172 171 168 170 172 168 167 171 189 192 199 189 190 183 145 130 144 147 142 155 172 178 174 165 179 185 161 136 171 184 174 183 199 193 193 187 176 189 206 194 162 212 181 130 35 10 119 74 11 18 32 1 13 141 177 174 145 43 25 179 224 157 194 246 219 170 222 235 229 242 157 153 190 196 182 183 181 171 166 165 162 161 166 166
148 153 159 169 173 168 167 172 172 169 170 187 201 200 195 134 155 135 137 134 142 154 160 165 173 187 182 172 178 178 164 159 180 192 172 174 201 191 188 186 177 188 199 192 148 203 175 141 64 4 86 101 40 202 156 38 356 4 259 211 142 206 212 194 214 217 210 233 242 205 213 231 228 215 156 167 191 195 187 181 176 171 172 169 159 159 168 169
145 146 155 171 170 166 168 171 170 170 173 200 202 205 170 122 110 139 144 143 150 164 175 172 168 190 194 180 169 169 174 175 171 178 181 183 193 183 184 182 171 186 188 170 176 168 141 210 171 51 6 120 135 216 195 180 162 8 299 235 339 260 225 200 207 228 230 232 244 219 199 223 223 213 219 211 201 196 184 176 178 178 175 169 160 163 169 168
145 139 155 172 168 166 167 165 164 171 186 206 200 189 145 132 127 199 160 147 153 171 185 181 172 177 189 184 168 164 180 182 168 181 199 180 173 187 193 185 158 174 173 148 163 164 118 256 176 115 334 181 179 209 209 185 170 179 189 178 186 197 187 262 229 228 241 233 240 239 230 232 183 192 221 226 230 205 179 170 174 176 172 165 164 170 171 168
143 127 155 170 167 164 160 155 162 181 199 209 203 165 149 136 134 181 181 140 130 111 192 184 175 175 177 178 171 161 172 179 174 187 193 178 189 213 201 190 163 151 154 144 174 172 149 198 154 140 181 194 185 3 335 222 166 191 196 188 195 186 159 209 215 187 207 242 250 257 261 259 111 133 225 201 61 45 159 164 166 168 167 165 171 175 174 172
141 118 159 169 168 161 156 152 181 194 204 203 177 111 134 136 141 167 172 146 122 65 103 168 164 171 172 177 174 159 162 176 179 190 200 198 205 204 191 188 166 152 155 166 176 146 78 113 125 131 171 186 123 59 61 292 268 259 245 215 206 196 191 213 217 182 177 203 3 327 277 271 113 80 11 108 86 47 82 152 161 166 166 169 176 178 176 176
122 107 150 167 167 161 160 163 186 195 221 168 114 88 124 141 143 156 164 171 162 120 152 151 148 166 170 174 172 162 166 174 183 195 203 201 204 176 160 173 162 157 162 164 162 141 78 115 128 123 108 83 130 128 119 135 233 248 243 221 214 209 200 215 244 190 173 174 172 229 250 255 158 117 84 71 103 113 189 178 168 168 168 172 179 179 178 180
111 115 144 167 170 167 172 191 182 193 196 154 134 113 124 125 141 160 175 181 174 165 166 152 151 167 152 157 171 172 175 180 195 204 207 194 186 113 144 165 163 163 175 176 171 171 172 165 146 140 145 169 188 188 191 196 207 225 226 205 209 209 117 84 319 264 222 189 192 220 248 248 166 114 142 145 159 193 205 195 184 177 170 172 178 179 181 183
116 118 143 164 173 182 203 236 187 192 174 158 157 154 144 113 142 171 173 163 148 166 163 141 144 145 127 144 163 176 184 191 200 201 208 195 169 92 146 169 172 177 189 183 168 164 174 186 161 165 180 182 191 206 203 187 180 209 219 190 198 202 186 177 210 236 223 196 189 213 247 249 140 130 182 167 164 195 200 192 194 190 175 172 178 181 183 184
124 115 137 158 177 197 227 270 228 200 173 165 162 165 165 153 150 174 160 153 142 143 130 111 144 139 135 160 165 175 192 197 104 182 199 186 143 60 151 174 179 183 185 174 160 150 147 268 188 193 202 199 213 221 196 157 152 190 204 200 200 202 200 198 205 218 219 216 205 215 236 247 232 182 193 192 186 199 197 185 190 191 177 176 182 184 185 186
116 134 154 148 172 199 226 234 226 213 179 175 168 173 174 158 146 164 182 183 188 173 115 86 161 163 160 171 173 182 193 190 113 171 192 177 113 60 98 161 180 177 156 166 158 140 118 241 210 212 215 214 222 219 183 165 177 197 204 204 204 200 196 197 212 223 220 221 231 225 226 240 243 212 194 200 198 203 202 190 191 191 182 181 185 186 187 187
84 132 190 184 168 192 209 208 207 199 182 180 172 171 173 162 155 169 183 168 178 186 171 138 186 186 174 171 172 177 185 188 189 188 178 155 131 111 110 101 169 169 134 165 163 144 168 203 208 222 229 230 218 171 166 182 196 209 209 204 199 190 187 195 214 228 224 217 237 235 223 229 239 230 214 206 194 200 207 196 189 186 181 184 187 188 188 190
88 99 184 198 178 188 179 183 193 197 187 182 178 177 179 174 168 166 152 133 169 200 207 187 188 189 179 176 173 170 175 183 193 191 160 135 144 136 132 147 171 156 120 151 176 218 193 189 197 209 236 243 216 137 176 198 200 211 214 204 188 182 189 199 213 227 226 223 236 242 239 239 238 232 231 217 188 182 182 176 179 184 188 190 190 190 192 194
109 107 157 157 50 47 150 168 181 195 193 188 188 187 187 185 176 160 142 155 173 189 208 199 184 180 178 179 183 189 190 191 195 183 152 130 150 178 168 168 153 130 138 158 166 288 227 190 188 182 244 251 223 150 199 211 211 217 211 192 176 179 194 207 218 228 227 230 240 247 255 260 247 227 221 191 162 157 154 169 185 193 196 194 192 194 197 198
132 125 131 134 87 29 164 172 181 192 194 196 195 184 188 193 181 153 133 169 176 175 191 191 168 158 161 183 197 206 189 180 174 162 163 158 170 187 185 162 149 142 161 179 164 185 201 189 180 177 227 247 228 203 198 171 290 250 216 178 175 181 195 205 215 221 218 225 239 246 252 255 245 218 194 162 151 159 169 183 193 199 202 201 199 200 201 201
144 140 129 117 105 62 175 168 181 193 194 198 199 185 184 192 180 155 144 154 40 145 180 176 147 134 147 193 202 198 154 146 77 138 172 173 155 171 169 150 159 158 161 173 171 177 179 175 170 177 205 226 220 207 177 143 225 250 217 193 190 193 203 207 216 223 216 217 228 233 238 245 233 189 188 175 156 172 187 196 203 206 206 208 207 206 205 204